"read_dt","SO2 (ppb)","flags","PMT voltage (V)","lamp voltage (V)","lamp intensity (Hz)","internal temp (C)","react chamber temp (C)","sample flow (l/min)","pres (mmHg)","SO2 bkg (ppb)","SO2 coefficient"
2016-01-07 00:00:00,1712E-3,5C000400,-0724,0832,12172,020.1,045.3,0.269,757.8,01.16,0.508
2016-01-07 00:01:00,1816E-3,5C000400,-0724,0832,12229,020.0,045.2,0.269,757.8,01.16,0.508
2016-01-07 00:02:00,1695E-3,5C000400,-0724,0832,12270,020.0,045.2,0.269,757.8,01.16,0.508
2016-01-07 00:03:00,1714E-3,5C000400,-0724,0831,12136,020.0,045.2,0.269,757.8,01.16,0.508
2016-01-07 00:04:00,1859E-3,5C000400,-0724,0831,12211,020.0,045.2,0.269,757.8,01.16,0.508
2016-01-07 00:05:00,1844E-3,5C000400,-0724,0831,12172,020.0,045.2,0.270,757.8,01.16,0.508
2016-01-07 00:06:00,1800E-3,5C000400,-0724,0832,12300,020.0,045.2,0.269,758.0,01.16,0.508
2016-01-07 00:07:00,1726E-3,5C000400,-0724,0831,12084,020.0,045.2,0.269,758.0,01.16,0.508
2016-01-07 00:08:00,1706E-3,5C000400,-0724,0832,12313,020.0,045.2,0.269,758.1,01.16,0.508
2016-01-07 00:09:00,1953E-3,5C000400,-0724,0831,12259,020.0,045.3,0.269,758.0,01.16,0.508
2016-01-07 00:10:00,1737E-3,5C000400,-0724,0831,12134,020.0,045.2,0.270,758.1,01.16,0.508
2016-01-07 00:11:00,1737E-3,5C000400,-0724,0832,12057,020.0,045.2,0.270,758.0,01.16,0.508
2016-01-07 00:12:00,1748E-3,5C000400,-0724,0831,12285,020.0,045.3,0.269,757.9,01.16,0.508
2016-01-07 00:13:00,1727E-3,5C000400,-0724,0832,12184,020.0,045.3,0.269,758.0,01.16,0.508
2016-01-07 00:14:00,1874E-3,5C000400,-0724,0832,12096,020.0,045.3,0.269,758.1,01.16,0.508
2016-01-07 00:15:00,1793E-3,5C000400,-0724,0832,12162,020.0,045.2,0.270,758.0,01.16,0.508
2016-01-07 00:16:00,1882E-3,5C000400,-0724,0832,12239,020.0,045.2,0.270,758.0,01.16,0.508
2016-01-07 00:17:00,1811E-3,5C000400,-0724,0832,12226,020.0,045.3,0.270,758.1,01.16,0.508
2016-01-07 00:18:00,1815E-3,5C000400,-0724,0832,12179,020.0,045.2,0.270,758.1,01.16,0.508
2016-01-07 00:19:00,1755E-3,5C000400,-0724,0831,12201,020.0,045.3,0.269,758.2,01.16,0.508
2016-01-07 00:20:00,1756E-3,5C000400,-0724,0832,12167,020.0,045.3,0.269,758.1,01.16,0.508
2016-01-07 00:21:00,1731E-3,5C000400,-0724,0831,12306,020.0,045.2,0.269,758.1,01.16,0.508
2016-01-07 00:22:00,1633E-3,5C000400,-0724,0831,12238,020.0,045.2,0.270,758.1,01.16,0.508
2016-01-07 00:23:00,1818E-3,5C000400,-0724,0831,12249,020.0,045.2,0.270,758.0,01.16,0.508
2016-01-07 00:24:00,1707E-3,5C000400,-0724,0832,12169,020.0,045.2,0.270,758.1,01.16,0.508
2016-01-07 00:25:00,1707E-3,5C000400,-0724,0831,12314,019.9,045.2,0.269,758.0,01.16,0.508
2016-01-07 00:26:00,1768E-3,5C000400,-0724,0832,12248,020.0,045.2,0.269,758.2,01.16,0.508
2016-01-07 00:27:00,1859E-3,5C000400,-0724,0831,12303,020.0,045.2,0.269,758.2,01.16,0.508
2016-01-07 00:28:00,1754E-3,5C000400,-0724,0831,12221,020.0,045.2,0.270,758.1,01.16,0.508
2016-01-07 00:29:00,1693E-3,5C000400,-0724,0831,12157,019.9,045.2,0.270,758.1,01.16,0.508
2016-01-07 00:30:00,1793E-3,5C000400,-0724,0832,12099,020.0,045.2,0.269,758.1,01.16,0.508
2016-01-07 00:31:00,1720E-3,5C000400,-0724,0832,12252,019.9,045.3,0.269,758.0,01.16,0.508
2016-01-07 00:32:00,1760E-3,5C000400,-0724,0831,12205,019.9,045.2,0.269,758.1,01.16,0.508
2016-01-07 00:33:00,1710E-3,5C000400,-0724,0832,12177,019.9,045.3,0.270,758.2,01.16,0.508
2016-01-07 00:34:00,1581E-3,5C000400,-0724,0831,12159,019.9,045.3,0.270,758.1,01.16,0.508
2016-01-07 00:35:00,1702E-3,5C000400,-0724,0831,12170,019.9,045.3,0.270,758.3,01.16,0.508
2016-01-07 00:36:00,1659E-3,5C000400,-0724,0831,12209,019.9,045.2,0.270,758.2,01.16,0.508
2016-01-07 00:37:00,1663E-3,5C000400,-0724,0832,12056,019.9,045.2,0.269,758.1,01.16,0.508
2016-01-07 00:38:00,1903E-3,5C000400,-0724,0831,12217,020.0,045.2,0.270,758.2,01.16,0.508
2016-01-07 00:39:00,1775E-3,5C000400,-0724,0831,12073,019.9,045.2,0.270,758.3,01.16,0.508
2016-01-07 00:40:00,1696E-3,5C000400,-0724,0832,12069,019.9,045.2,0.270,758.2,01.16,0.508
2016-01-07 00:41:00,1821E-3,5C000400,-0724,0832,12205,019.9,045.2,0.270,758.2,01.16,0.508
2016-01-07 00:42:00,1806E-3,5C000400,-0724,0831,12094,019.9,045.2,0.269,758.2,01.16,0.508
2016-01-07 00:43:00,1688E-3,5C000400,-0724,0831,12101,019.9,045.3,0.269,758.1,01.16,0.508
2016-01-07 00:44:00,1832E-3,5C000400,-0724,0832,12134,019.9,045.3,0.270,758.2,01.16,0.508
2016-01-07 00:45:00,1688E-3,5C000400,-0724,0832,12100,019.9,045.2,0.270,758.1,01.16,0.508
2016-01-07 00:46:00,1841E-3,5C000400,-0724,0832,12170,019.9,045.2,0.270,758.3,01.16,0.508
2016-01-07 00:47:00,1810E-3,5C000400,-0724,0831,12113,019.9,045.2,0.269,758.3,01.16,0.508
2016-01-07 00:48:00,1787E-3,5C000400,-0724,0831,12142,019.9,045.2,0.269,758.3,01.16,0.508
2016-01-07 00:49:00,1758E-3,5C000400,-0724,0831,11999,019.9,045.2,0.270,758.4,01.16,0.508
2016-01-07 00:50:00,1849E-3,5C000400,-0724,0831,12225,019.9,045.2,0.270,758.3,01.16,0.508
2016-01-07 00:51:00,1846E-3,5C000400,-0724,0832,12194,019.9,045.2,0.270,758.4,01.16,0.508
2016-01-07 00:52:00,1723E-3,5C000400,-0724,0831,12160,019.9,045.2,0.269,758.4,01.16,0.508
2016-01-07 00:53:00,1770E-3,5C000400,-0724,0830,12261,019.9,045.2,0.269,758.3,01.16,0.508
2016-01-07 00:54:00,1746E-3,5C000400,-0724,0832,12241,019.9,045.2,0.270,758.4,01.16,0.508
2016-01-07 00:55:00,1736E-3,5C000400,-0724,0831,12297,019.9,045.2,0.270,758.4,01.16,0.508
2016-01-07 00:56:00,1778E-3,5C000400,-0724,0832,12184,019.9,045.2,0.270,758.3,01.16,0.508
2016-01-07 00:57:00,1856E-3,5C000400,-0724,0831,12211,019.9,045.2,0.270,758.4,01.16,0.508
2016-01-07 00:58:00,1729E-3,5C000400,-0724,0832,12228,019.9,045.2,0.269,758.3,01.16,0.508
2016-01-07 00:59:00,1931E-3,5C000400,-0724,0831,12159,019.9,045.2,0.270,758.3,01.16,0.508
2016-01-07 01:00:00,1795E-3,5C000400,-0724,0832,12250,019.9,045.2,0.270,758.4,01.16,0.508
2016-01-07 01:01:00,1777E-3,5C000400,-0724,0832,12147,019.9,045.3,0.270,758.4,01.16,0.508
2016-01-07 01:02:00,1853E-3,5C000400,-0724,0831,12241,019.8,045.2,0.270,758.5,01.16,0.508
2016-01-07 01:03:00,1812E-3,5C000400,-0724,0831,12196,019.8,045.2,0.269,758.4,01.16,0.508
2016-01-07 01:04:00,1665E-3,5C000400,-0724,0831,12157,019.8,045.2,0.270,758.4,01.16,0.508
2016-01-07 01:05:00,1830E-3,5C000400,-0724,0832,12124,019.8,045.2,0.270,758.5,01.16,0.508
2016-01-07 01:06:00,1787E-3,5C000400,-0724,0831,12093,019.9,045.2,0.270,758.5,01.16,0.508
2016-01-07 01:07:00,1733E-3,5C000400,-0724,0832,12025,019.9,045.2,0.270,758.4,01.16,0.508
2016-01-07 01:08:00,1773E-3,5C000400,-0724,0831,12233,019.8,045.2,0.269,758.5,01.16,0.508
2016-01-07 01:09:00,1806E-3,5C000400,-0724,0831,12320,019.9,045.3,0.269,758.5,01.16,0.508
2016-01-07 01:10:00,1824E-3,5C000400,-0724,0832,12228,019.8,045.3,0.270,758.6,01.16,0.508
2016-01-07 01:11:00,1726E-3,5C000400,-0724,0831,12106,019.8,045.2,0.270,758.5,01.16,0.508
2016-01-07 01:12:00,1724E-3,5C000400,-0724,0832,12210,019.8,045.2,0.270,758.5,01.16,0.508
2016-01-07 01:13:00,1697E-3,5C000400,-0724,0831,12220,019.8,045.2,0.269,758.5,01.16,0.508
2016-01-07 01:14:00,1743E-3,5C000400,-0724,0832,12172,019.8,045.2,0.269,758.5,01.16,0.508
2016-01-07 01:15:00,1757E-3,5C000400,-0724,0832,12185,019.8,045.2,0.270,758.5,01.16,0.508
2016-01-07 01:16:00,1814E-3,5C000400,-0724,0831,12087,019.8,045.2,0.270,758.5,01.16,0.508
2016-01-07 01:17:00,1728E-3,5C000400,-0724,0831,12142,019.8,045.2,0.270,758.5,01.16,0.508
2016-01-07 01:18:00,1845E-3,5C000400,-0724,0831,12161,019.8,045.2,0.270,758.6,01.16,0.508
2016-01-07 01:19:00,1789E-3,5C000400,-0724,0832,12185,019.8,045.2,0.270,758.5,01.16,0.508
2016-01-07 01:20:00,1865E-3,5C000400,-0724,0831,12319,019.8,045.2,0.270,758.6,01.16,0.508
2016-01-07 01:21:00,1729E-3,5C000400,-0724,0832,12115,019.8,045.2,0.269,758.6,01.16,0.508
2016-01-07 01:22:00,1853E-3,5C000400,-0724,0831,12077,019.8,045.2,0.270,758.6,01.16,0.508
2016-01-07 01:23:00,1878E-3,5C000400,-0724,0832,12263,019.8,045.2,0.270,758.6,01.16,0.508
2016-01-07 01:24:00,1984E-3,5C000400,-0724,0831,12170,019.8,045.2,0.270,758.7,01.16,0.508
2016-01-07 01:25:00,1767E-3,5C000400,-0724,0831,12135,019.8,045.2,0.270,758.6,01.16,0.508
2016-01-07 01:26:00,1712E-3,5C000400,-0724,0830,12098,019.8,045.2,0.270,758.6,01.16,0.508
2016-01-07 01:27:00,1824E-3,5C000400,-0724,0831,12152,019.8,045.2,0.269,758.6,01.16,0.508
2016-01-07 01:28:00,1725E-3,5C000400,-0724,0831,12129,019.8,045.2,0.270,758.6,01.16,0.508
2016-01-07 01:29:00,1860E-3,5C000400,-0724,0832,12205,019.8,045.3,0.270,758.7,01.16,0.508
2016-01-07 01:30:00,1804E-3,5C000400,-0724,0831,12148,019.8,045.2,0.270,758.7,01.16,0.508
2016-01-07 01:31:00,1823E-3,5C000400,-0724,0831,12239,019.8,045.2,0.270,758.7,01.16,0.508
2016-01-07 01:32:00,1790E-3,5C000400,-0724,0831,12242,019.8,045.2,0.270,758.7,01.16,0.508
2016-01-07 01:33:00,1847E-3,5C000400,-0724,0833,12305,019.8,045.2,0.270,758.7,01.16,0.508
2016-01-07 01:34:00,1772E-3,5C000400,-0724,0831,12330,019.8,045.2,0.269,758.7,01.16,0.508
2016-01-07 01:35:00,1777E-3,5C000400,-0724,0832,12203,019.8,045.3,0.269,758.7,01.16,0.508
2016-01-07 01:36:00,1794E-3,5C000400,-0724,0832,12281,019.8,045.2,0.270,758.7,01.16,0.508
2016-01-07 01:37:00,1909E-3,5C000400,-0724,0832,12140,019.8,045.2,0.270,758.7,01.16,0.508
2016-01-07 01:38:00,1569E-3,5C000400,-0724,0832,12284,019.8,045.2,0.270,758.6,01.16,0.508
2016-01-07 01:39:00,1824E-3,5C000400,-0724,0832,12287,019.8,045.2,0.270,758.7,01.16,0.508
2016-01-07 01:40:00,1727E-3,5C000400,-0724,0831,12257,019.7,045.2,0.270,758.7,01.16,0.508
2016-01-07 01:41:00,1796E-3,5C000400,-0724,0831,12139,019.8,045.3,0.270,758.7,01.16,0.508
2016-01-07 01:42:00,1729E-3,5C000400,-0724,0832,12024,019.8,045.3,0.270,758.7,01.16,0.508
2016-01-07 01:43:00,1864E-3,5C000400,-0724,0832,12181,019.7,045.3,0.270,758.7,01.16,0.508
2016-01-07 01:44:00,1734E-3,5C000400,-0724,0831,12232,019.8,045.2,0.269,758.8,01.16,0.508
2016-01-07 01:45:00,1768E-3,5C000400,-0724,0831,12264,019.8,045.2,0.269,758.7,01.16,0.508
2016-01-07 01:46:00,1821E-3,5C000400,-0724,0831,12143,019.8,045.2,0.270,758.7,01.16,0.508
2016-01-07 01:47:00,1779E-3,5C000400,-0724,0831,12168,019.8,045.2,0.270,758.7,01.16,0.508
2016-01-07 01:48:00,1674E-3,5C000400,-0724,0831,12112,019.8,045.2,0.270,758.8,01.16,0.508
2016-01-07 01:49:00,1684E-3,5C000400,-0724,0831,12202,019.8,045.2,0.270,758.8,01.16,0.508
2016-01-07 01:50:00,1749E-3,5C000400,-0724,0831,12089,019.7,045.2,0.270,758.9,01.16,0.508
2016-01-07 01:51:00,1742E-3,5C000400,-0724,0830,12148,019.7,045.2,0.270,758.9,01.16,0.508
2016-01-07 01:52:00,1757E-3,5C000400,-0724,0831,12097,019.7,045.2,0.270,759.0,01.16,0.508
2016-01-07 01:53:00,1694E-3,5C000400,-0724,0832,12260,019.7,045.2,0.270,758.9,01.16,0.508
2016-01-07 01:54:00,1776E-3,5C000400,-0724,0832,12252,019.8,045.2,0.270,758.9,01.16,0.508
2016-01-07 01:55:00,1757E-3,5C000400,-0724,0831,12193,019.8,045.2,0.270,759.0,01.16,0.508
2016-01-07 01:56:00,1760E-3,5C000400,-0724,0832,12264,019.7,045.2,0.270,759.0,01.16,0.508
2016-01-07 01:57:00,1857E-3,5C000400,-0724,0832,12173,019.7,045.2,0.270,758.9,01.16,0.508
2016-01-07 01:58:00,1683E-3,5C000400,-0724,0831,12171,019.8,045.2,0.270,758.9,01.16,0.508
2016-01-07 01:59:00,1719E-3,5C000400,-0724,0832,12119,019.7,045.2,0.270,758.9,01.16,0.508
2016-01-07 02:00:00,1637E-3,5C000400,-0724,0831,12254,019.7,045.2,0.270,758.9,01.16,0.508
2016-01-07 02:01:00,1769E-3,5C000400,-0724,0832,12154,019.7,045.2,0.270,758.9,01.16,0.508
2016-01-07 02:02:00,1718E-3,5C000400,-0724,0831,12325,019.7,045.2,0.270,758.9,01.16,0.508
2016-01-07 02:03:00,1708E-3,5C000400,-0724,0831,12114,019.7,045.3,0.270,758.9,01.16,0.508
2016-01-07 02:04:00,1878E-3,5C000400,-0724,0831,12170,019.7,045.2,0.269,758.8,01.16,0.508
2016-01-07 02:05:00,1661E-3,5C000400,-0724,0831,12197,019.7,045.2,0.270,758.8,01.16,0.508
2016-01-07 02:06:00,1750E-3,5C000400,-0724,0831,12199,019.7,045.2,0.270,758.9,01.16,0.508
2016-01-07 02:07:00,1890E-3,5C000400,-0724,0831,12067,019.7,045.3,0.270,758.8,01.16,0.508
2016-01-07 02:08:00,1804E-3,5C000400,-0724,0831,12144,019.7,045.2,0.270,758.8,01.16,0.508
2016-01-07 02:09:00,1760E-3,5C000400,-0724,0831,12132,019.7,045.2,0.270,758.8,01.16,0.508
2016-01-07 02:10:00,1809E-3,5C000400,-0724,0831,12225,019.7,045.3,0.270,758.8,01.16,0.508
2016-01-07 02:11:00,1609E-3,5C000400,-0724,0831,12217,019.7,045.2,0.270,759.0,01.16,0.508
2016-01-07 02:12:00,1834E-3,5C000400,-0724,0832,12181,019.7,045.2,0.270,758.9,01.16,0.508
2016-01-07 02:13:00,1862E-3,5C000400,-0724,0832,12161,019.7,045.2,0.270,758.8,01.16,0.508
2016-01-07 02:14:00,1833E-3,5C000400,-0724,0831,12216,019.7,045.3,0.270,758.8,01.16,0.508
2016-01-07 02:15:00,1741E-3,5C000400,-0724,0831,12159,019.7,045.3,0.270,758.8,01.16,0.508
2016-01-07 02:16:00,1806E-3,5C000400,-0724,0832,12208,019.7,045.2,0.270,758.8,01.16,0.508
2016-01-07 02:17:00,1732E-3,5C000400,-0724,0831,12204,019.7,045.3,0.270,758.9,01.16,0.508
2016-01-07 02:18:00,1791E-3,5C000400,-0724,0832,12214,019.7,045.2,0.270,758.8,01.16,0.508
2016-01-07 02:19:00,1755E-3,5C000400,-0724,0832,12089,019.7,045.2,0.269,758.8,01.16,0.508
2016-01-07 02:20:00,1891E-3,5C000400,-0724,0832,12148,019.7,045.2,0.270,758.9,01.16,0.508
2016-01-07 02:21:00,1683E-3,5C000400,-0724,0832,12234,019.7,045.3,0.270,759.0,01.16,0.508
2016-01-07 02:22:00,1752E-3,5C000400,-0724,0831,12271,019.7,045.2,0.270,759.0,01.16,0.508
2016-01-07 02:23:00,1723E-3,5C000400,-0724,0831,12068,019.7,045.2,0.270,759.0,01.16,0.508
2016-01-07 02:24:00,1740E-3,5C000400,-0724,0831,12209,019.7,045.2,0.270,759.1,01.16,0.508
2016-01-07 02:25:00,1806E-3,5C000400,-0724,0831,12085,019.8,045.2,0.270,759.0,01.16,0.508
2016-01-07 02:26:00,1734E-3,5C000400,-0724,0832,12139,019.7,045.2,0.270,759.0,01.16,0.508
2016-01-07 02:27:00,1878E-3,5C000400,-0724,0832,12030,019.7,045.2,0.270,759.0,01.16,0.508
2016-01-07 02:28:00,1736E-3,5C000400,-0724,0831,12241,019.7,045.2,0.269,759.0,01.16,0.508
2016-01-07 02:29:00,1790E-3,5C000400,-0724,0831,12251,019.7,045.2,0.270,759.0,01.16,0.508
2016-01-07 02:30:00,1748E-3,5C000400,-0724,0831,12306,019.7,045.2,0.270,759.0,01.16,0.508
2016-01-07 02:31:00,1601E-3,5C000400,-0724,0831,12152,019.7,045.2,0.270,759.1,01.16,0.508
2016-01-07 02:32:00,1755E-3,5C000400,-0724,0831,12264,019.7,045.2,0.270,759.1,01.16,0.508
2016-01-07 02:33:00,1776E-3,5C000400,-0724,0831,12231,019.7,045.2,0.270,759.0,01.16,0.508
2016-01-07 02:34:00,1816E-3,5C000400,-0724,0832,12184,019.7,045.2,0.270,759.1,01.16,0.508
2016-01-07 02:35:00,1900E-3,5C000400,-0724,0831,12044,019.7,045.2,0.270,759.1,01.16,0.508
2016-01-07 02:36:00,1743E-3,5C000400,-0724,0832,12225,019.7,045.3,0.269,759.1,01.16,0.508
2016-01-07 02:37:00,1811E-3,5C000400,-0724,0831,12234,019.7,045.2,0.270,759.1,01.16,0.508
2016-01-07 02:38:00,1771E-3,5C000400,-0724,0832,12212,019.7,045.2,0.270,759.1,01.16,0.508
2016-01-07 02:39:00,1663E-3,5C000400,-0724,0832,12175,019.7,045.2,0.270,759.1,01.16,0.508
2016-01-07 02:40:00,1830E-3,5C000400,-0724,0832,12175,019.7,045.2,0.270,759.1,01.16,0.508
2016-01-07 02:41:00,1856E-3,5C000400,-0724,0832,12281,019.7,045.2,0.270,759.1,01.16,0.508
2016-01-07 02:42:00,1770E-3,5C000400,-0724,0831,12351,019.7,045.2,0.270,759.2,01.16,0.508
2016-01-07 02:43:00,1798E-3,5C000400,-0724,0832,12234,019.7,045.2,0.270,759.1,01.16,0.508
2016-01-07 02:44:00,1867E-3,5C000400,-0724,0831,12228,019.7,045.2,0.270,759.2,01.16,0.508
2016-01-07 02:45:00,1694E-3,5C000400,-0724,0832,11969,019.7,045.2,0.270,759.2,01.16,0.508
2016-01-07 02:46:00,1737E-3,5C000400,-0724,0831,12165,019.7,045.2,0.270,759.2,01.16,0.508
2016-01-07 02:47:00,1697E-3,5C000400,-0724,0832,12082,019.7,045.2,0.270,759.3,01.16,0.508
2016-01-07 02:48:00,1785E-3,5C000400,-0724,0831,11960,019.7,045.3,0.270,759.3,01.16,0.508
2016-01-07 02:49:00,1572E-3,5C000400,-0724,0831,12242,019.7,045.2,0.270,759.3,01.16,0.508
2016-01-07 02:50:00,1821E-3,5C000400,-0724,0832,12248,019.7,045.2,0.270,759.3,01.16,0.508
2016-01-07 02:51:00,1824E-3,5C000400,-0724,0832,12102,019.7,045.2,0.270,759.3,01.16,0.508
2016-01-07 02:52:00,1925E-3,5C000400,-0724,0832,12140,019.7,045.2,0.270,759.3,01.16,0.508
2016-01-07 02:53:00,1772E-3,5C000400,-0724,0832,12355,019.7,045.2,0.270,759.4,01.16,0.508
2016-01-07 02:54:00,1903E-3,5C000400,-0724,0832,12071,019.7,045.2,0.270,759.3,01.16,0.508
2016-01-07 02:55:00,1827E-3,5C000400,-0724,0832,12128,019.7,045.2,0.270,759.3,01.16,0.508
2016-01-07 02:56:00,1790E-3,5C000400,-0724,0831,12184,019.7,045.2,0.270,759.2,01.16,0.508
2016-01-07 02:57:00,1568E-3,5C000400,-0724,0832,12165,019.7,045.2,0.269,759.3,01.16,0.508
2016-01-07 02:58:00,1740E-3,5C000400,-0724,0832,12161,019.7,045.2,0.270,759.3,01.16,0.508
2016-01-07 02:59:00,1810E-3,5C000400,-0724,0831,12125,019.7,045.2,0.270,759.3,01.16,0.508
2016-01-07 03:00:00,1892E-3,5C000400,-0724,0831,12030,019.7,045.2,0.270,759.3,01.16,0.508
2016-01-07 03:01:00,1760E-3,5C000400,-0724,0832,12294,019.7,045.3,0.270,759.3,01.16,0.508
2016-01-07 03:02:00,1734E-3,5C000400,-0724,0832,12085,019.7,045.2,0.270,759.4,01.16,0.508
2016-01-07 03:03:00,1740E-3,5C000400,-0724,0831,12239,019.7,045.2,0.270,759.3,01.16,0.508
2016-01-07 03:04:00,1770E-3,5C000400,-0724,0831,12122,019.7,045.2,0.270,759.3,01.16,0.508
2016-01-07 03:05:00,1724E-3,5C000400,-0724,0832,12256,019.7,045.2,0.270,759.3,01.16,0.508
2016-01-07 03:06:00,1771E-3,5C000400,-0724,0833,12245,019.7,045.3,0.270,759.3,01.16,0.508
2016-01-07 03:07:00,1780E-3,5C000400,-0724,0831,12018,019.7,045.3,0.270,759.3,01.16,0.508
2016-01-07 03:08:00,1814E-3,5C000400,-0724,0832,12134,019.7,045.3,0.270,759.3,01.16,0.508
2016-01-07 03:09:00,1753E-3,5C000400,-0724,0832,12154,019.7,045.2,0.270,759.3,01.16,0.508
2016-01-07 03:10:00,1819E-3,5C000400,-0724,0831,12142,019.7,045.2,0.270,759.3,01.16,0.508
2016-01-07 03:11:00,1723E-3,5C000400,-0724,0831,12120,019.7,045.2,0.270,759.4,01.16,0.508
2016-01-07 03:12:00,1941E-3,5C000400,-0724,0832,12345,019.7,045.2,0.270,759.5,01.16,0.508
2016-01-07 03:13:00,1712E-3,5C000400,-0724,0831,12263,019.7,045.2,0.270,759.5,01.16,0.508
2016-01-07 03:14:00,1831E-3,5C000400,-0724,0832,12133,019.7,045.2,0.270,759.4,01.16,0.508
2016-01-07 03:15:00,1848E-3,5C000400,-0724,0831,12284,019.7,045.2,0.270,759.4,01.16,0.508
2016-01-07 03:16:00,1794E-3,5C000400,-0724,0831,12257,019.6,045.2,0.271,759.4,01.16,0.508
2016-01-07 03:17:00,1773E-3,5C000400,-0724,0831,12147,019.7,045.2,0.270,759.4,01.16,0.508
2016-01-07 03:18:00,1722E-3,5C000400,-0724,0832,12072,019.6,045.2,0.270,759.4,01.16,0.508
2016-01-07 03:19:00,1798E-3,5C000400,-0724,0832,12016,019.6,045.2,0.270,759.3,01.16,0.508
2016-01-07 03:20:00,1714E-3,5C000400,-0724,0831,12102,019.7,045.3,0.270,759.3,01.16,0.508
2016-01-07 03:21:00,1776E-3,5C000400,-0724,0831,12119,019.6,045.2,0.270,759.3,01.16,0.508
2016-01-07 03:22:00,1710E-3,5C000400,-0724,0832,12313,019.6,045.2,0.270,759.3,01.16,0.508
2016-01-07 03:23:00,1724E-3,5C000400,-0724,0831,12149,019.6,045.2,0.270,759.3,01.16,0.508
2016-01-07 03:24:00,1868E-3,5C000400,-0724,0832,12148,019.6,045.2,0.270,759.3,01.16,0.508
2016-01-07 03:25:00,1736E-3,5C000400,-0724,0831,12147,019.7,045.2,0.270,759.3,01.16,0.508
2016-01-07 03:26:00,1696E-3,5C000400,-0724,0831,12210,019.6,045.2,0.270,759.3,01.16,0.508
2016-01-07 03:27:00,1675E-3,5C000400,-0724,0832,12113,019.7,045.2,0.270,759.3,01.16,0.508
2016-01-07 03:28:00,1697E-3,5C000400,-0724,0831,12287,019.6,045.2,0.270,759.2,01.16,0.508
2016-01-07 03:29:00,1779E-3,5C000400,-0724,0831,12264,019.6,045.2,0.270,759.3,01.16,0.508
2016-01-07 03:30:00,1720E-3,5C000400,-0724,0831,12236,019.6,045.2,0.270,759.3,01.16,0.508
2016-01-07 03:31:00,1757E-3,5C000400,-0724,0832,12237,019.7,045.2,0.270,759.3,01.16,0.508
2016-01-07 03:32:00,1731E-3,5C000400,-0724,0832,12123,019.7,045.2,0.270,759.4,01.16,0.508
2016-01-07 03:33:00,1784E-3,5C000400,-0724,0832,12164,019.6,045.2,0.270,759.5,01.16,0.508
2016-01-07 03:34:00,1695E-3,5C000400,-0724,0831,12070,019.6,045.2,0.270,759.4,01.16,0.508
2016-01-07 03:35:00,1726E-3,5C000400,-0724,0831,12228,019.6,045.2,0.270,759.5,01.16,0.508
2016-01-07 03:36:00,1754E-3,5C000400,-0724,0832,12148,019.6,045.2,0.270,759.6,01.16,0.508
2016-01-07 03:37:00,1767E-3,5C000400,-0724,0831,12250,019.6,045.2,0.270,759.6,01.16,0.508
2016-01-07 03:38:00,1778E-3,5C000400,-0724,0832,12123,019.6,045.2,0.270,759.7,01.16,0.508
2016-01-07 03:39:00,1722E-3,5C000400,-0724,0832,12282,019.6,045.2,0.270,759.6,01.16,0.508
2016-01-07 03:40:00,1838E-3,5C000400,-0724,0831,12232,019.6,045.2,0.270,759.6,01.16,0.508
2016-01-07 03:41:00,1745E-3,5C000400,-0724,0832,12209,019.6,045.2,0.270,759.6,01.16,0.508
2016-01-07 03:42:00,1716E-3,5C000400,-0724,0831,12167,019.6,045.2,0.270,759.6,01.16,0.508
2016-01-07 03:43:00,1710E-3,5C000400,-0724,0832,12294,019.6,045.2,0.270,759.6,01.16,0.508
2016-01-07 03:44:00,1704E-3,5C000400,-0724,0831,12252,019.6,045.2,0.270,759.6,01.16,0.508
2016-01-07 03:45:00,1796E-3,5C000400,-0724,0831,12110,019.6,045.2,0.270,759.6,01.16,0.508
2016-01-07 03:46:00,1776E-3,5C000400,-0724,0831,12248,019.6,045.2,0.270,759.6,01.16,0.508
2016-01-07 03:47:00,1725E-3,5C000400,-0724,0832,12106,019.6,045.2,0.270,759.6,01.16,0.508
2016-01-07 03:48:00,1852E-3,5C000400,-0724,0832,12254,019.6,045.2,0.270,759.5,01.16,0.508
2016-01-07 03:49:00,1843E-3,5C000400,-0724,0832,12069,019.6,045.2,0.270,759.6,01.16,0.508
2016-01-07 03:50:00,1768E-3,5C000400,-0724,0832,12247,019.6,045.2,0.270,759.5,01.16,0.508
2016-01-07 03:51:00,1826E-3,5C000400,-0724,0832,12065,019.6,045.2,0.270,759.4,01.16,0.508
2016-01-07 03:52:00,1768E-3,5C000400,-0724,0832,12245,019.6,045.2,0.270,759.6,01.16,0.508
2016-01-07 03:53:00,1885E-3,5C000400,-0724,0831,12130,019.6,045.2,0.270,759.6,01.16,0.508
2016-01-07 03:54:00,1720E-3,5C000400,-0724,0831,12109,019.6,045.2,0.270,759.7,01.16,0.508
2016-01-07 03:55:00,1882E-3,5C000400,-0724,0831,12302,019.6,045.2,0.270,759.6,01.16,0.508
2016-01-07 03:56:00,1646E-3,5C000400,-0724,0831,12219,019.6,045.2,0.270,759.6,01.16,0.508
2016-01-07 03:57:00,1750E-3,5C000400,-0724,0831,12283,019.6,045.2,0.270,759.7,01.16,0.508
2016-01-07 03:58:00,1863E-3,5C000400,-0724,0831,12197,019.6,045.3,0.270,759.7,01.16,0.508
2016-01-07 03:59:00,1786E-3,5C000400,-0724,0831,12277,019.6,045.2,0.270,759.7,01.16,0.508
2016-01-07 04:00:00,1784E-3,5C000400,-0724,0831,12099,019.6,045.2,0.270,759.8,01.16,0.508
2016-01-07 04:01:00,1699E-3,5C000400,-0724,0831,12117,019.6,045.2,0.270,759.8,01.16,0.508
2016-01-07 04:02:00,1734E-3,5C000400,-0724,0832,12298,019.6,045.2,0.270,759.7,01.16,0.508
2016-01-07 04:03:00,1764E-3,5C000400,-0724,0832,12064,019.6,045.2,0.270,759.7,01.16,0.508
2016-01-07 04:04:00,1748E-3,5C000400,-0724,0832,12178,019.6,045.2,0.270,759.6,01.16,0.508
2016-01-07 04:05:00,1750E-3,5C000400,-0724,0832,12227,019.6,045.2,0.270,759.8,01.16,0.508
2016-01-07 04:06:00,1812E-3,5C000400,-0724,0831,12104,019.6,045.2,0.270,759.8,01.16,0.508
2016-01-07 04:07:00,1789E-3,5C000400,-0724,0831,12068,019.6,045.2,0.270,759.8,01.16,0.508
2016-01-07 04:08:00,1763E-3,5C000400,-0724,0831,12177,019.6,045.2,0.270,759.9,01.16,0.508
2016-01-07 04:09:00,1844E-3,5C000400,-0724,0832,12277,019.6,045.2,0.270,759.9,01.16,0.508
2016-01-07 04:10:00,1821E-3,5C000400,-0724,0832,12128,019.6,045.2,0.270,759.9,01.16,0.508
2016-01-07 04:11:00,1721E-3,5C000400,-0724,0831,12239,019.6,045.3,0.270,759.9,01.16,0.508
2016-01-07 04:12:00,1727E-3,5C000400,-0724,0832,12188,019.6,045.2,0.270,759.9,01.16,0.508
2016-01-07 04:13:00,1620E-3,5C000400,-0724,0831,12125,019.6,045.2,0.270,759.9,01.16,0.508
2016-01-07 04:14:00,1844E-3,5C000400,-0724,0832,12183,019.6,045.2,0.270,759.9,01.16,0.508
2016-01-07 04:15:00,1790E-3,5C000400,-0724,0831,12139,019.6,045.2,0.270,759.8,01.16,0.508
2016-01-07 04:16:00,1686E-3,5C000400,-0724,0831,12265,019.6,045.2,0.271,759.9,01.16,0.508
2016-01-07 04:17:00,1800E-3,5C000400,-0724,0832,11977,019.6,045.2,0.270,759.9,01.16,0.508
2016-01-07 04:18:00,1706E-3,5C000400,-0724,0831,12192,019.6,045.2,0.270,760.0,01.16,0.508
2016-01-07 04:19:00,1729E-3,5C000400,-0724,0831,12194,019.6,045.2,0.270,759.9,01.16,0.508
2016-01-07 04:20:00,1875E-3,5C000400,-0724,0831,12054,019.6,045.2,0.270,760.0,01.16,0.508